Location: Stockholm
(59.3330°N, 18.0500°E)
Time: 13:45:00
(UTC+01:00)

Envisat - Pass Details

Date: 04 December 2022
Orbit: 763 x 765 km, 98.2° (Epoch: 29 January)

Event Time Altitude Azimuth Distance (km) Brightness Sun altitude
Rises 16:03:18 0° 200° (SSW) 3,226 7.1 -7.9°
Reaches altitude 10° 16:05:58 10° 213° (SSW) 2,304 6.6 -8.1°
Maximum altitude 16:10:12 26° 270° (W) 1,476 5.3 -8.6°
Drops below altitude 10° 16:14:28 10° 327° (NNW) 2,318 5.6 -9.1°
Sets 16:17:09 0° 340° (NNW) 3,250 6.2 -9.4°
